This is the latest recevied weather packets stored in our database for station/object OE6JUE. If no packets are shown the sender has not sent any weather packets the latest 10 day(s).
| Time | Temp. | Humidity | Pressure | Rain* | Wind** | Luminosity | Snow |
|---|---|---|---|---|---|---|---|
| 1788617339 | 21.67° C | 73% | 1021.9 hPa | 0 mm | - | - | - |
| 1788617039 | 21.67° C | 74% | 1021.8 hPa | 0 mm | - | - | - |
| 1788616739 | 20.56° C | 75% | 1021.9 hPa | 0 mm | - | - | - |
| 1788616439 | 20.56° C | 75% | 1021.8 hPa | 0 mm | - | - | - |
| 1788616138 | 20.56° C | 75% | 1021.7 hPa | 0 mm | - | - | - |
| 1788615839 | 21.11° C | 74% | 1021.8 hPa | 0 mm | - | - | - |
| 1788615539 | 21.11° C | 74% | 1021.9 hPa | 0 mm | - | - | - |
| 1788615239 | 21.11° C | 73% | 1022 hPa | 0 mm | - | - | - |
| 1788614939 | 21.11° C | 75% | 1022.1 hPa | 0 mm | - | - | - |
| 1788614639 | 21.11° C | 79% | 1022.1 hPa | 0 mm | - | - | - |
| 1788614338 | 21.11° C | 79% | 1022.1 hPa | 0.25 mm | - | - | - |
| 1788614039 | 20° C | 77% | 1022 hPa | 0.25 mm | - | - | - |
| 1788613739 | 20° C | 77% | 1022 hPa | 0.25 mm | - | - | - |
| 1788613438 | 20.56° C | 79% | 1022.1 hPa | 0.25 mm | - | - | - |
| 1788613138 | 20.56° C | 79% | 1022.1 hPa | 0.25 mm | - | - | - |
| 1788612838 | 20.56° C | 82% | 1021.9 hPa | 0.25 mm | - | - | - |
| 1788612539 | 20.56° C | 86% | 1022.1 hPa | 0.25 mm | - | - | - |
| 1788612238 | 20° C | 86% | 1022 hPa | 0.51 mm | - | - | - |
| 1788611938 | 20° C | 87% | 1022.1 hPa | 0.51 mm | - | - | - |
| 1788611639 | 19.44° C | 87% | 1022 hPa | 0.51 mm | - | - | - |
| 1788611338 | 19.44° C | 88% | 1022.2 hPa | 1.02 mm | - | - | - |
| 1788611039 | 19.44° C | 89% | 1022.1 hPa | 1.27 mm | - | - | - |
| 1788610739 | 19.44° C | 89% | 1022.4 hPa | 2.29 mm | - | - | - |
| 1788610439 | 18.89° C | 88% | 1022.4 hPa | 2.29 mm | - | - | - |
| 1788610143 | 18.89° C | 88% | 1022.4 hPa | 2.29 mm | - | - | - |
* Rain latest hour (hover to see other rain measurements)
** Current wind speed in m/s (hover to see current wind gust speed)